[[{"header":{"parameterUnit":"m.s-1","parameterCategory":1,"la1":30.2991,"la2":30.254,"lo1":-89.0895,"lo2":-89.0444,"dy":0.0017,"dx":0.0017,"nx":28,"ny":28,"refTime":"2025-07-04T03:00:00:Z","depth":0,"parameterNumber":2,"parameterNumberName":"U-component_of_WINDS"},"data":[0,0,0,0,0,0,0,0,0,0,0,0,0,0,0,0,0,0,0,0,0,0,0,0,0,0,0,0,0,0,0,0,0,0,0,0,0,0,0,0,0,0,0,0,0,0,0,0,0,0,0,0,0,0,0,0,0,0,-0.8353,-0.8353,0,-0.8338,-0.8338,-0.8338,-0.8295,-0.8294,-0.8294,-0.8293,-0.8279,-0.8279,-0.828,0,0,0,0,0,0,0,0,0,0,0,0,0,-0.8344,-0.8345,-0.8353,-0.8353,-0.8352,-0.8338,-0.8338,-0.8338,-0.8296,-0.8294,-0.8293,-0.8292,-0.8278,-0.8279,-0.828,0,0,0,0,0,0,0,0,0,0,0,0,0,-0.8341,-0.8345,-0.8353,-0.833,-0.8327,-0.8338,-0.8338,-0.8338,-0.8296,-0.8294,-0.8293,-0.8292,-0.8278,-0.8279,-0.828,-0.8312,0,0,-0.8282,-0.8282,0,0,0,0,0,0,0,0,-0.8341,-0.8341,-0.8333,-0.8331,-0.8329,-0.8317,-0.833,-0.8329,-0.8296,-0.8308,-0.8293,-0.8291,-0.8293,-0.8292,-0.8292,-0.8311,-0.8311,-0.8282,-0.8282,-0.8283,-0.8283,0,0,0,0,0,0,0,-0.8341,-0.8341,-0.8347,-0.8333,-0.833,-0.832,-0.8318,-0.8329,-0.8308,-0.8307,-0.8304,-0.8302,-0.8291,-0.8292,-0.8292,-0.831,-0.8282,-0.8283,-0.8283,-0.8283,-0.8354,-0.8355,0,0,0,0,0,0,-0.8345,-0.8342,-0.8347,-0.8347,-0.8332,-0.8321,-0.8319,-0.8322,-0.8308,-0.8304,-0.8304,-0.83,-0.8291,-0.8291,-0.8291,-0.8328,-0.8283,-0.8283,-0.8284,-0.8353,-0.8354,-0.8356,0,0,0,0,0,0,-0.8345,-0.8346,-0.8348,-0.8343,-0.8343,-0.8323,-0.8327,-0.8323,-0.8323,-0.8306,-0.8302,-0.8308,-0.829,-0.829,-0.8307,-0.8327,-0.8284,-0.8284,-0.8351,-0.8353,-0.8355,-0.8402,0,0,0,0,0,0,-0.8345,-0.8346,-0.8358,-0.8344,-0.8343,-0.8364,-0.8328,-0.8323,-0.8325,-0.832,-0.8309,-0.8306,-0.8289,-0.8306,-0.8308,-0.8327,-0.8285,-0.8349,-0.8352,-0.8355,-0.8399,-0.8406,-0.8411,0,0,0,0,0,-0.8345,-0.8372,-0.8359,-0.836,-0.8358,-0.8366,-0.8365,-0.8345,-0.8326,-0.8339,-0.8327,-0.8306,-0.8324,-0.8308,-0.8309,-0.833,-0.8348,-0.8351,-0.8354,-0.8396,-0.8404,-0.8411,0,0,0,0,0,0,-0.839,-0.837,-0.8355,-0.8379,-0.8374,-0.8359,-0.8373,-0.8355,-0.8356,-0.8352,-0.8327,-0.8325,-0.8345,-0.8338,-0.8321,-0.8359,-0.8332,-0.8336,-0.8363,-0.8371,-0.8378,-0.8379,-0.8286,0,0,0,0,0,-0.8403,-0.8411,-0.8393,-0.8416,-0.8414,-0.8394,-0.8397,-0.8381,-0.8375,-0.8373,-0.8363,-0.8358,-0.8362,-0.8366,-0.8369,-0.8397,-0.8394,-0.8411,-0.8417,-0.8423,-0.8427,-0.8441,-0.8448,-0.8367,-0.8367,-0.8367,0,0,-0.843,-0.842,-0.8426,-0.8424,-0.8419,-0.8428,-0.8393,-0.8403,-0.8409,-0.8375,-0.8391,-0.8382,-0.8375,-0.8397,-0.8407,-0.8393,-0.8448,-0.8427,-0.8431,-0.8432,-0.8445,-0.8452,-0.8459,-0.8369,-0.8368,-0.8368,0,0,-0.8484,-0.8476,-0.8495,-0.8489,-0.8481,-0.8467,-0.8472,-0.8458,-0.8451,-0.8466,-0.844,-0.8447,-0.8455,-0.8451,-0.845,-0.85,-0.8481,-0.8501,-0.8535,-0.8549,-0.8556,-0.8561,-0.8579,-0.8586,-0.8505,-0.8505,-0.8505,0,-0.8519,-0.853,-0.8507,-0.8519,-0.8519,-0.8486,-0.8505,-0.8501,-0.8494,-0.8495,-0.8479,-0.8488,-0.8481,-0.8501,-0.8513,-0.8513,-0.8518,-0.8503,-0.8556,-0.8562,-0.8567,-0.8584,-0.8591,-0.8508,-0.8507,-0.8507,-0.8507,0,-0.8574,-0.8582,-0.8597,-0.8591,-0.8592,-0.8608,-0.8586,-0.859,-0.8574,-0.8562,-0.8577,-0.8567,-0.8567,-0.8571,-0.8555,-0.8589,-0.8581,-0.8561,-0.8533,-0.8577,-0.8593,-0.86,-0.8511,-0.851,-0.851,-0.8509,0,0,-0.8658,-0.8637,-0.8643,-0.864,-0.8627,-0.8633,-0.8646,-0.8646,-0.865,-0.8646,-0.8657,-0.8663,-0.8644,-0.8643,-0.8627,-0.8639,-0.8679,-0.8617,-0.8617,-0.863,-0.8716,-0.8732,-0.874,-0.8665,-0.8666,-0.8667,-0.8717,0,-0.871,-0.8731,-0.871,-0.8736,-0.8743,-0.8711,-0.8723,-0.8716,-0.8704,-0.8709,-0.8696,-0.8701,-0.8676,-0.8675,-0.8685,-0.8672,-0.8696,-0.8668,-0.8676,-0.8676,-0.868,-0.8748,-0.8765,-0.8813,-0.8723,-0.8724,-0.8724,0,-0.8774,-0.8772,-0.8798,-0.8783,-0.8785,-0.8796,-0.8793,-0.8798,-0.8789,-0.878,-0.8777,-0.8757,-0.8768,-0.874,-0.8756,-0.8737,-0.8738,-0.8732,-0.8733,-0.8735,-0.8704,-0.8753,-0.8827,-0.8835,-0.8734,-0.8733,-0.8732,0,-0.8834,-0.8838,-0.8854,-0.8852,-0.8834,-0.8842,-0.8835,-0.8825,-0.8826,-0.8823,-0.8824,-0.8822,-0.8822,-0.8822,-0.8801,-0.8782,-0.882,-0.8789,-0.8813,-0.8813,-0.8824,-0.8824,-0.8901,-0.8822,-0.8822,-0.8822,-0.8822,0,-0.8895,-0.8913,-0.8881,-0.8891,-0.891,-0.8884,-0.8903,-0.8892,-0.8883,-0.8891,-0.8863,-0.8871,-0.8842,-0.8847,-0.8831,-0.8846,-0.8846,-0.8839,-0.8835,-0.8843,-0.8844,-0.8845,-0.8842,-0.8824,-0.8823,-0.8823,-0.8823,0,-0.8967,-0.8946,-0.8962,-0.8943,-0.8938,-0.8953,-0.8937,-0.8946,-0.8931,-0.8941,-0.8942,-0.8919,-0.8923,-0.8902,-0.8902,-0.8891,-0.8915,-0.8904,-0.8918,-0.8915,-0.894,-0.8939,-0.9022,-0.9032,-0.8946,-0.8946,-0.8947,0,-0.9008,-0.9021,-0.9003,-0.9006,-0.9,-0.9005,-0.9005,-0.8979,-0.8981,-0.8971,-0.8981,-0.8982,-0.8982,-0.8989,-0.8973,-0.8972,-0.8962,-0.8991,-0.8962,-0.8969,-0.8964,-0.8964,-0.8966,-0.8998,-0.8999,-0.9,-0.9001,0,-0.9084,-0.9072,-0.9074,-0.9071,-0.9072,-0.9069,-0.9064,-0.9068,-0.904,-0.9043,-0.9046,-0.9046,-0.9045,-0.9047,-0.9043,-0.9035,-0.9014,-0.901,-0.9015,-0.9024,-0.9032,-0.9029,-0.8936,-0.9009,-0.9008,-0.9007,-0.9007,-0.9007,-0.9142,-0.9152,-0.9141,-0.9143,-0.9136,-0.9132,-0.9139,-0.9124,-0.9126,-0.9124,-0.9108,-0.9114,-0.9103,-0.9096,-0.909,-0.9094,-0.908,-0.9088,-0.909,-0.9093,-0.9098,-0.903,-0.9093,-0.9093,-0.9093,-0.9092,-0.9092,0,-0.9218,-0.9208,-0.921,-0.9204,-0.9205,-0.9183,-0.9176,-0.9179,-0.9185,-0.9176,-0.9176,-0.918,-0.918,-0.9163,-0.9162,-0.9169,-0.9159,-0.9169,-0.917,-0.9168,-0.911,-0.9106,-0.9177,-0.9177,-0.9177,-0.9177,-0.9177,-0.9177,-0.9257,-0.9272,-0.9259,-0.9271,-0.9261,-0.9266,-0.9264,-0.926,-0.9253,-0.9258,-0.9258,-0.9247,-0.9235,-0.9232,-0.9232,-0.9226,-0.9228,-0.9242,-0.9234,-0.9181,-0.9172,-0.9165,-0.9161,-0.9242,-0.9242,-0.9292,-0.9292,-0.9293]},{"header":{"parameterUnit":"m.s-1","parameterCategory":1,"la1":30.2991,"la2":30.254,"lo1":-89.0895,"lo2":-89.0444,"dy":0.0017,"dx":0.0017,"nx":28,"ny":28,"refTime":"2025-07-04T03:00:00:Z","depth":0,"parameterNumber":3,"parameterNumberName":"V-component_of_WINDS"},"data":[0,0,0,0,0,0,0,0,0,0,0,0,0,0,0,0,0,0,0,0,0,0,0,0,0,0,0,0,0,0,0,0,0,0,0,0,0,0,0,0,0,0,0,0,0,0,0,0,0,0,0,0,0,0,0,0,0,0,-3.0529,-3.0529,0,-3.0573,-3.0574,-3.0574,-3.0564,-3.0563,-3.0562,-3.0561,-3.0603,-3.0605,-3.0607,0,0,0,0,0,0,0,0,0,0,0,0,0,-3.0434,-3.0435,-3.0529,-3.0529,-3.053,-3.0573,-3.0574,-3.0574,-3.0564,-3.0563,-3.0562,-3.0561,-3.0602,-3.0605,-3.0607,0,0,0,0,0,0,0,0,0,0,0,0,0,-3.0476,-3.0436,-3.0529,-3.053,-3.0531,-3.0573,-3.0574,-3.0574,-3.0564,-3.0563,-3.0562,-3.0561,-3.0602,-3.0604,-3.0607,-3.0649,0,0,-3.0616,-3.0617,0,0,0,0,0,0,0,0,-3.0474,-3.0479,-3.0529,-3.053,-3.0531,-3.0562,-3.0555,-3.0599,-3.0565,-3.0551,-3.0561,-3.056,-3.059,-3.0594,-3.0605,-3.0651,-3.0653,-3.0616,-3.0618,-3.0619,-3.062,0,0,0,0,0,0,0,-3.0471,-3.0477,-3.0546,-3.053,-3.0531,-3.0528,-3.0533,-3.0564,-3.0577,-3.0552,-3.0552,-3.0557,-3.059,-3.0602,-3.0606,-3.0654,-3.0616,-3.0618,-3.062,-3.0621,-3.074,-3.0741,0,0,0,0,0,0,-3.0467,-3.0475,-3.0545,-3.0548,-3.0499,-3.0531,-3.0536,-3.0553,-3.0577,-3.0579,-3.0558,-3.0557,-3.0598,-3.0602,-3.0607,-3.066,-3.0619,-3.0622,-3.0623,-3.0738,-3.074,-3.0741,0,0,0,0,0,0,-3.0465,-3.0474,-3.0543,-3.0511,-3.052,-3.0534,-3.0553,-3.0555,-3.0566,-3.0581,-3.0583,-3.0568,-3.0597,-3.0603,-3.064,-3.0661,-3.0623,-3.0625,-3.0736,-3.0739,-3.0741,-3.0765,0,0,0,0,0,0,-3.0463,-3.0473,-3.049,-3.0512,-3.0522,-3.0576,-3.0554,-3.0556,-3.0572,-3.057,-3.0591,-3.0593,-3.0596,-3.0636,-3.0643,-3.0664,-3.0628,-3.0735,-3.0737,-3.074,-3.0762,-3.0767,-3.0772,0,0,0,0,0,-3.0459,-3.0493,-3.0491,-3.0499,-3.0543,-3.0577,-3.0583,-3.0587,-3.0573,-3.059,-3.06,-3.0593,-3.0657,-3.0639,-3.0647,-3.067,-3.0733,-3.0737,-3.074,-3.076,-3.0766,-3.0772,0,0,0,0,0,0,-3.0472,-3.0496,-3.0493,-3.0536,-3.0555,-3.0575,-3.0596,-3.0593,-3.0615,-3.0612,-3.0615,-3.062,-3.0658,-3.0667,-3.0647,-3.0713,-3.0693,-3.0698,-3.0706,-3.0712,-3.0717,-3.0714,-3.063,0,0,0,0,0,-3.048,-3.0506,-3.0526,-3.0561,-3.0571,-3.0582,-3.0597,-3.0599,-3.0618,-3.0626,-3.0638,-3.0656,-3.0681,-3.0697,-3.072,-3.0763,-3.0768,-3.0783,-3.0788,-3.0792,-3.0796,-3.0821,-3.0829,-3.0752,-3.0752,-3.0752,0,0,-3.0496,-3.0512,-3.0529,-3.0564,-3.0579,-3.0607,-3.0589,-3.0618,-3.0638,-3.063,-3.0666,-3.0676,-3.0696,-3.0737,-3.0755,-3.0746,-3.0818,-3.0796,-3.0799,-3.0801,-3.0826,-3.0833,-3.0839,-3.0754,-3.0754,-3.0754,0,0,-3.0539,-3.0554,-3.0587,-3.0603,-3.0626,-3.0634,-3.0641,-3.0663,-3.067,-3.0707,-3.0702,-3.0725,-3.0767,-3.0782,-3.0796,-3.0847,-3.0842,-3.0855,-3.0881,-3.0905,-3.0912,-3.0917,-3.0937,-3.0944,-3.0859,-3.0859,-3.0859,0,-3.0556,-3.0598,-3.0603,-3.0634,-3.065,-3.0645,-3.0678,-3.0693,-3.0722,-3.0733,-3.0722,-3.0777,-3.079,-3.0835,-3.0848,-3.0858,-3.0868,-3.0853,-3.091,-3.0916,-3.0921,-3.094,-3.0947,-3.0861,-3.086,-3.086,-3.086,0,-3.0618,-3.0648,-3.0671,-3.0702,-3.072,-3.0751,-3.0761,-3.0779,-3.078,-3.0788,-3.0827,-3.0843,-3.087,-3.0881,-3.088,-3.0926,-3.092,-3.091,-3.089,-3.093,-3.0948,-3.0955,-3.0863,-3.0862,-3.0862,-3.0861,0,0,-3.067,-3.0705,-3.0714,-3.0729,-3.0755,-3.0778,-3.0809,-3.0837,-3.0854,-3.0874,-3.0901,-3.0938,-3.0929,-3.0944,-3.0946,-3.0967,-3.1009,-3.0954,-3.0955,-3.0965,-3.1063,-3.1071,-3.108,-3.1006,-3.1007,-3.1008,-3.1062,0,-3.0718,-3.0775,-3.0781,-3.0832,-3.086,-3.0857,-3.0884,-3.0903,-3.0912,-3.0937,-3.0946,-3.0973,-3.0959,-3.0968,-3.0989,-3.1,-3.1029,-3.0996,-3.1031,-3.1032,-3.1027,-3.1089,-3.1098,-3.1147,-3.1069,-3.107,-3.1071,0,-3.078,-3.0805,-3.086,-3.0884,-3.0896,-3.0921,-3.0949,-3.0972,-3.0994,-3.0999,-3.1017,-3.1016,-3.1049,-3.1027,-3.1073,-3.105,-3.1064,-3.1072,-3.1074,-3.1078,-3.1054,-3.1096,-3.1163,-3.1171,-3.1081,-3.108,-3.108,0,-3.0815,-3.0862,-3.0901,-3.0913,-3.0943,-3.0961,-3.0973,-3.0994,-3.1011,-3.1035,-3.1047,-3.1073,-3.1088,-3.1108,-3.1115,-3.1098,-3.116,-3.1139,-3.1166,-3.1166,-3.1179,-3.1179,-3.1251,-3.1187,-3.1187,-3.1186,-3.1186,0,-3.0868,-3.0901,-3.0917,-3.0941,-3.0979,-3.0986,-3.1023,-3.1035,-3.1054,-3.108,-3.1077,-3.1102,-3.1109,-3.1134,-3.1139,-3.1177,-3.1183,-3.1188,-3.1189,-3.1189,-3.1189,-3.1199,-3.1196,-3.1188,-3.1188,-3.1188,-3.1187,0,-3.0913,-3.0925,-3.0968,-3.0993,-3.1,-3.1027,-3.1048,-3.1071,-3.1081,-3.1114,-3.1122,-3.1136,-3.1167,-3.1175,-3.121,-3.1214,-3.1259,-3.1256,-3.1252,-3.1252,-3.1279,-3.1277,-3.1362,-3.1374,-3.1301,-3.1301,-3.1302,0,-3.0946,-3.0973,-3.1002,-3.102,-3.1034,-3.1063,-3.1082,-3.109,-3.1109,-3.1137,-3.1157,-3.1187,-3.1212,-3.126,-3.1273,-3.1301,-3.13,-3.1328,-3.1304,-3.1303,-3.1302,-3.1301,-3.1304,-3.1332,-3.1333,-3.1334,-3.1334,0,-3.1005,-3.101,-3.1038,-3.1069,-3.1091,-3.1115,-3.1138,-3.1152,-3.1164,-3.1185,-3.1217,-3.1237,-3.1275,-3.1305,-3.1333,-3.1345,-3.1342,-3.1342,-3.135,-3.135,-3.1348,-3.1351,-3.1266,-3.134,-3.1339,-3.1339,-3.1338,-3.1338,-3.1046,-3.1071,-3.1096,-3.1127,-3.1145,-3.1167,-3.1191,-3.1205,-3.1232,-3.1265,-3.1267,-3.1302,-3.1324,-3.1362,-3.1376,-3.1404,-3.1395,-3.1406,-3.1409,-3.1412,-3.1416,-3.1343,-3.1408,-3.1408,-3.1408,-3.1408,-3.1408,0,-3.1106,-3.1123,-3.1152,-3.1185,-3.121,-3.1206,-3.1232,-3.1253,-3.1284,-3.1306,-3.1331,-3.1369,-3.1398,-3.1415,-3.1444,-3.1463,-3.1463,-3.1471,-3.147,-3.1473,-3.142,-3.1411,-3.1471,-3.1471,-3.1471,-3.1471,-3.1471,-3.1471,-3.1141,-3.1182,-3.1191,-3.1241,-3.1257,-3.1293,-3.1308,-3.1329,-3.1346,-3.1389,-3.1415,-3.1426,-3.1445,-3.1477,-3.1504,-3.1508,-3.152,-3.153,-3.1533,-3.1483,-3.1477,-3.1471,-3.1462,-3.1532,-3.1532,-3.1584,-3.1584,-3.1585]}]]